DELTA 2 R/B(1)

Satellite information

Favourite Embed

Satellite Type and Status

ROCKET BODYIN ORBIT

Key statistics

Satellite DELTA 2 R/B(1) at a glance.

Uptime

12003

Days in orbit

Revolutions

≈ 14.9

Per day

Orbit

LEO

Low Earth Orbit

Inclination

20.3

Latest

Satellite identification and parameters

Extended collection of information and parameters for DELTA 2 R/B(1).

Object identification

Identified? True

Debris? False

Object name: DELTA 2 R/B(1)

International designator: 1992-089B

Object number (NORAD): 22276

Object ID (CCSDS): 22276

Country: UNITED STATES OF AMERICA (US)

Current information (Y/N): Y

RCS size: LARGE

Orbital parameters

Period: 96.334 minutes

Inclination: 20.2842 deg

SMA: 6961.131 km

Apoapsis: 618.726 km

Periapsis: 547.265 km

RAAN: 102.6866 deg

Eccentricy: 0.00513283

Argument of periapsis: 332.0834 deg

Mean anomaly: 27.6845 deg

Mean motion: 14.94799954 rev/day

Mean motion (dot): 0.00004199 rev/day2

B* drag term: 0.00032766146 1/REarth

Two-line elements (TLE)

Creation date: Oct. 28, 2025, 7:11 p.m.

Reference frame: TEME

Reference center: EARTH

Epoch: Oct. 28, 2025, 3:36 p.m. UTC

TLE line 0: 0 DELTA 2 R/B(1)

TLE line 1: 1 22276U 92089B 25301.65008503 .00004199 00000-0 32766-3 0 9995

TLE line 2: 2 22276 20.2842 102.6866 0051328 332.0834 27.6845 14.94799954756999

Live tracking on map

Real-time ground track for satellite DELTA 2 R/B(1).

In-orbit conjunctions

A list of the most updated potential collisions computed for object DELTA 2 R/B(1).

Target Orbit TCA Probability of collision Miss distance Type
CZ-1 DEB LEO 2025-04-14 05:10:33 0.00010383 220.0 (m) DEBRIS
SL-14 R/B LEO 2024-11-09 09:41:11 0.001025426 752.0 (m) ROCKET BODY

Associated space launch

GPS-2A (Global Positioning System) or Navstar-2A (Navigation System using Timing And ranging) are improved satellites of the second generation of the GPS navigation system.

DELTA 2 R/B(1) was lifted into orbit during the mission ‘Delta II | GPS IIA-8’, on board a Delta II space rocket.

The launch took place on Dec. 18, 1992, 10:16 p.m. from Space Launch Complex 17B.

For more information about the launch, click the button.

Launch to space Delta II | GPS IIA-8
Delta II | GPS IIA-8

Agency: N/A

Status: Launch Successful

Launch date: Dec. 18, 1992, 10:16 p.m. UTC

Rocket: Delta II

Launch pad: Space Launch Complex 17B

Location: Cape Canaveral SFS, FL, USA

...

Latest news about this satellite

There are no fresh news available about this satellite. Check back as we update our databases every day.


Newsletter sign-up

Weekly statistics, charts and insights to help you stay on top of the space industry.